When you browse on this site, cookies collect data to enhance your experience and personalize the content and advertising you see.
Visit our Privacy Policy to learn more. By continuing to use the site, you agree to this use of cookies and data.
  • In Switzerland
  • List of Countries
  • For 7 days
  • Water Temperature
  • Satellite Maps
  • Weather Map
  • Weather Widgets
  • user-avatar
    Login

    Hourly Weather Korçe

    Today, 19 July, Friday

    Time Temperature Precipitation Wind Pressure Humidity
    00:00 +14°C° 0 mm 0 mps 666 mmHg 80%
    01:00 +14°C° 0 mm 0 mps 666 mmHg 80%
    02:00 +13°C° 0 mm 0 mps 666 mmHg 80%
    03:00 +14°C° 0 mm 1 mps 666 mmHg 80%
    04:00 +14°C° 0 mm 1 mps 666 mmHg 80%
    05:00 +16°C° 0 mm 1 mps 667 mmHg 75%
    06:00 +18°C° 0 mm 1 mps 667 mmHg 70%
    07:00 +20°C° 0 mm 1 mps 668 mmHg 66%
    08:00 +22°C° 0.2 mm 1 mps 669 mmHg 59%
    09:00 +23°C° 0.2 mm 1 mps 669 mmHg 53%
    10:00 +25°C° 0.2 mm 1 mps 670 mmHg 46%
    11:00 +25°C° 0.5 mm 1 mps 669 mmHg 47%
    12:00 +24°C° 0.5 mm 1 mps 669 mmHg 48%
    13:00 +24°C° 0.5 mm 1 mps 669 mmHg 50%
    14:00 +23°C° 1.1 mm 1 mps 669 mmHg 55%
    15:00 +23°C° 1.1 mm 1 mps 669 mmHg 61%
    16:00 +21°C° 1.1 mm 2 mps 669 mmHg 66%
    17:00 +20°C° 1.2 mm 1 mps 668 mmHg 71%
    18:00 +19°C° 1.2 mm 1 mps 668 mmHg 76%
    19:00 +18°C° 1.2 mm 1 mps 668 mmHg 80%
    20:00 +16°C° 0 mm 1 mps 668 mmHg 80%
    21:00 +16°C° 0 mm 1 mps 668 mmHg 80%
    22:00 +15°C° 0 mm 1 mps 668 mmHg 81%
    23:00 +15°C° 0 mm 1 mps 668 mmHg 80%

    Tomorrow, 20 July, Saturday

    Time Temperature Precipitation Wind Pressure Humidity
    00:00 +15°C° 0 mm 1 mps 668 mmHg 80%
    01:00 +14°C° 0 mm 1 mps 668 mmHg 80%
    02:00 +14°C° 0 mm 1 mps 668 mmHg 80%
    03:00 +14°C° 0 mm 1 mps 668 mmHg 80%
    04:00 +14°C° 0 mm 1 mps 668 mmHg 80%
    05:00 +16°C° 0 mm 1 mps 668 mmHg 75%
    06:00 +18°C° 0 mm 1 mps 669 mmHg 71%
    07:00 +20°C° 0 mm 1 mps 670 mmHg 67%
    08:00 +22°C° 0 mm 1 mps 670 mmHg 59%
    09:00 +24°C° 0 mm 1 mps 671 mmHg 52%
    10:00 +26°C° 0 mm 1 mps 672 mmHg 44%
    11:00 +26°C° 0 mm 1 mps 672 mmHg 43%
    12:00 +27°C° 0 mm 1 mps 672 mmHg 41%
    13:00 +27°C° 0 mm 1 mps 672 mmHg 39%
    14:00 +26°C° 0.1 mm 2 mps 672 mmHg 44%
    15:00 +26°C° 0.1 mm 2 mps 671 mmHg 49%
    16:00 +25°C° 0.1 mm 2 mps 671 mmHg 54%
    17:00 +23°C° 0.3 mm 2 mps 671 mmHg 61%
    18:00 +20°C° 0.3 mm 2 mps 670 mmHg 69%
    19:00 +18°C° 0.3 mm 2 mps 670 mmHg 77%
    20:00 +19°C° 0 mm 1 mps 670 mmHg 77%
    21:00 +18°C° 0 mm 1 mps 670 mmHg 78%
    22:00 +18°C° 0 mm 1 mps 670 mmHg 78%
    23:00 +16°C° 0 mm 1 mps 670 mmHg 77%

    Day after tomorrow, 21 July, Sunday

    Time Temperature Precipitation Wind Pressure Humidity
    00:00 +16°C° 0 mm 1 mps 670 mmHg 77%
    01:00 +16°C° 0 mm 1 mps 670 mmHg 76%
    02:00 +16°C° 0 mm 1 mps 670 mmHg 76%
    03:00 +16°C° 0 mm 1 mps 670 mmHg 76%
    04:00 +16°C° 0 mm 1 mps 669 mmHg 75%
    05:00 +18°C° 0 mm 1 mps 670 mmHg 71%
    06:00 +20°C° 0 mm 1 mps 671 mmHg 67%
    07:00 +22°C° 0 mm 1 mps 671 mmHg 63%
    08:00 +24°C° 0 mm 1 mps 672 mmHg 56%
    09:00 +26°C° 0 mm 1 mps 672 mmHg 49%
    10:00 +27°C° 0 mm 1 mps 673 mmHg 42%
    11:00 +28°C° 0 mm 1 mps 673 mmHg 40%
    12:00 +29°C° 0 mm 1 mps 673 mmHg 38%
    13:00 +29°C° 0 mm 2 mps 673 mmHg 36%
    14:00 +28°C° 0 mm 2 mps 673 mmHg 40%
    15:00 +28°C° 0 mm 2 mps 672 mmHg 43%
    16:00 +27°C° 0 mm 3 mps 672 mmHg 47%
    17:00 +25°C° 0 mm 3 mps 671 mmHg 54%
    18:00 +23°C° 0 mm 2 mps 671 mmHg 61%
    19:00 +20°C° 0 mm 2 mps 670 mmHg 69%
    20:00 +20°C° 0 mm 2 mps 671 mmHg 69%
    21:00 +20°C° 0 mm 1 mps 671 mmHg 69%
    22:00 +19°C° 0 mm 1 mps 671 mmHg 69%
    23:00 +19°C° 0 mm 1 mps 670 mmHg 69%

    22 July, Monday

    Time Temperature Precipitation Wind Pressure Humidity
    00:00 +19°C° 0 mm 1 mps 670 mmHg 69%
    01:00 +19°C° 0 mm 1 mps 670 mmHg 68%
    02:00 +18°C° 0 mm 1 mps 670 mmHg 69%
    03:00 +18°C° 0 mm 1 mps 670 mmHg 69%
    04:00 +18°C° 0 mm 1 mps 670 mmHg 69%
    05:00 +20°C° 0 mm 1 mps 670 mmHg 65%
    06:00 +22°C° 0 mm 1 mps 671 mmHg 61%
    07:00 +24°C° 0 mm 1 mps 671 mmHg 57%
    08:00 +25°C° 0 mm 1 mps 672 mmHg 51%
    09:00 +27°C° 0 mm 1 mps 672 mmHg 45%
    10:00 +28°C° 0 mm 2 mps 673 mmHg 38%
    11:00 +29°C° 0 mm 2 mps 672 mmHg 37%
    12:00 +29°C° 0 mm 2 mps 672 mmHg 36%
    13:00 +30°C° 0 mm 2 mps 672 mmHg 34%
    14:00 +29°C° 0 mm 2 mps 672 mmHg 36%
    15:00 +29°C° 0 mm 3 mps 671 mmHg 38%
    16:00 +28°C° 0 mm 3 mps 671 mmHg 40%
    17:00 +26°C° 0 mm 3 mps 670 mmHg 48%
    18:00 +24°C° 0 mm 2 mps 670 mmHg 55%
    19:00 +21°C° 0 mm 2 mps 669 mmHg 62%
    20:00 +21°C° 0 mm 2 mps 669 mmHg 63%
    21:00 +21°C° 0 mm 1 mps 669 mmHg 64%
    22:00 +20°C° 0 mm 1 mps 669 mmHg 65%
    23:00 +20°C° 0 mm 1 mps 669 mmHg 65%

    23 July, Tuesday

    Time Temperature Precipitation Wind Pressure Humidity
    00:00 +20°C° 0 mm 1 mps 669 mmHg 65%
    01:00 +19°C° 0 mm 1 mps 669 mmHg 65%
    02:00 +19°C° 0 mm 1 mps 668 mmHg 66%
    03:00 +19°C° 0 mm 1 mps 668 mmHg 67%
    04:00 +18°C° 0 mm 1 mps 668 mmHg 69%
    05:00 +20°C° 0 mm 1 mps 668 mmHg 66%
    06:00 +22°C° 0 mm 1 mps 669 mmHg 63%
    07:00 +23°C° 0 mm 1 mps 669 mmHg 61%
    08:00 +25°C° 0 mm 1 mps 669 mmHg 55%
    09:00 +27°C° 0 mm 1 mps 670 mmHg 48%
    10:00 +28°C° 0 mm 1 mps 670 mmHg 42%
    11:00 +29°C° 0 mm 1 mps 670 mmHg 41%
    12:00 +29°C° 0 mm 2 mps 670 mmHg 39%
    13:00 +29°C° 0 mm 2 mps 669 mmHg 38%
    14:00 +29°C° 0 mm 2 mps 669 mmHg 41%
    15:00 +28°C° 0 mm 3 mps 669 mmHg 44%
    16:00 +28°C° 0 mm 3 mps 668 mmHg 48%
    17:00 +26°C° 0 mm 2 mps 668 mmHg 53%
    18:00 +24°C° 0 mm 2 mps 667 mmHg 58%
    19:00 +21°C° 0 mm 2 mps 667 mmHg 63%
    20:00 +20°C° 0 mm 2 mps 667 mmHg 63%
    21:00 +19°C° 0 mm 2 mps 667 mmHg 64%
    22:00 +18°C° 0 mm 2 mps 667 mmHg 65%
    23:00 +18°C° 0 mm 2 mps 667 mmHg 65%

    24 July, Wednesday

    Time Temperature Precipitation Wind Pressure Humidity
    00:00 +17°C° 0 mm 2 mps 666 mmHg 66%
    01:00 +17°C° 0 mm 2 mps 666 mmHg 66%
    02:00 +16°C° 0 mm 2 mps 666 mmHg 69%
    03:00 +16°C° 0 mm 2 mps 666 mmHg 71%
    04:00 +15°C° 0 mm 2 mps 665 mmHg 74%
    05:00 +17°C° 0 mm 2 mps 666 mmHg 69%
    06:00 +18°C° 0 mm 2 mps 667 mmHg 64%
    07:00 +20°C° 0 mm 2 mps 667 mmHg 60%
    08:00 +21°C° 0 mm 2 mps 668 mmHg 54%
    09:00 +24°C° 0 mm 2 mps 668 mmHg 48%
    10:00 +25°C° 0 mm 2 mps 669 mmHg 43%
    11:00 +26°C° 0 mm 2 mps 669 mmHg 41%
    12:00 +27°C° 0 mm 2 mps 669 mmHg 40%
    13:00 +28°C° 0 mm 2 mps 669 mmHg 39%
    14:00 +27°C° 0 mm 2 mps 669 mmHg 40%
    15:00 +27°C° 0 mm 2 mps 669 mmHg 42%
    16:00 +26°C° 0 mm 2 mps 668 mmHg 43%
    17:00 +24°C° 0 mm 2 mps 668 mmHg 48%
    18:00 +23°C° 0 mm 2 mps 668 mmHg 53%
    19:00 +20°C° 0 mm 2 mps 667 mmHg 58%
    20:00 +19°C° 0 mm 2 mps 667 mmHg 58%
    21:00 +18°C° 0 mm 2 mps 667 mmHg 57%
    22:00 +17°C° 0 mm 2 mps 667 mmHg 56%
    23:00 +17°C° 0 mm 2 mps 667 mmHg 57%
    Show more